Home > Weather > Pasco > Past weeks

Flag for U.S.A. Weather for the Past 2 Weeks in Pasco, Washington, U.S.A.

Now
58 °F

Partly sunny.


Feels Like: 54 °F
Forecast: 47 / 60 °F
Wind: 18 mph from Southwest

Location: Tri-Cities Airport

Current Time: Feb 14, 2016 at 3:47:14 PM

Latest Report: Feb 14, 2016 at 2:53 PM


Visibility: 10 mi

Pressure: 30.09 "Hg

Humidity: 67%

Dew point: 47 °F

Location of PascoLocation

Historic Weather in Pasco — Graph

°F

Pasco Temperature Yesterday

Maximum temperature yesterday: 52 °F (at 11:53 AM)
Minimum temperature yesterday: 44 °F (at 1:53 AM)
Average temperature yesterday: 48 °F

High & Low Weather Summary for the Past Weeks

 TemperatureHumidityPressure
High57 °F (Feb 14, 12:53 PM)97% (Feb 5, 2:53 AM)30.69 "Hg (Feb 5, 2:53 AM)
Low23 °F (Feb 1, 2:53 AM)46% (Jan 30, 3:53 PM)29.90 "Hg (Jan 30, 1:53 PM)
Average40 °F79%30.30 "Hg
* Reported Jan 30 1:53 PM — Feb 14 1:53 PM, Pasco, Weather by CustomWeather, © 2016

Note: Actual official high and low records may vary slightly from our data, if they occured in-between our weather recording intervals... More about our weather records

Advertising

Pasco Weather History for the Previous 24 Hours

 ConditionsComfort  
Time TempWeatherWind HumidityBarometerVisibility
1:53 PM
Sun, Feb 14
57 °FPassing clouds.12 mph67%30.11 "Hg10 mi
12:53 PM57 °FSunny.18 mph64%30.11 "Hg10 mi
11:53 AM56 °FPartly sunny.12 mph67%30.15 "Hg10 mi
10:53 AM54 °FPartly sunny.5 mph72%30.15 "Hg10 mi
9:53 AM53 °FLight rain. Mostly cloudy.9 mph72%30.16 "Hg10 mi
8:53 AM52 °FMostly cloudy.9 mph72%30.16 "Hg10 mi
7:53 AM50 °FCloudy.18 mph77%30.15 "Hg10 mi
6:53 AM49 °FMostly cloudy.3 mph74%30.13 "Hg10 mi
5:53 AM49 °FPassing clouds.15 mph74%30.11 "Hg10 mi
4:53 AM48 °FClear.12 mph74%30.12 "Hg10 mi
3:53 AM47 °FClear.15 mph74%30.12 "Hg10 mi
2:53 AM47 °FClear.13 mph74%30.12 "Hg10 mi
1:53 AM48 °FClear.12 mph71%30.14 "Hg10 mi
12:53 AM47 °FClear.9 mph71%30.13 "Hg10 mi
11:53 PM
Sat, Feb 13
46 °FPassing clouds.9 mph77%30.14 "Hg10 mi
10:53 PM46 °FPassing clouds.13 mph77%30.14 "Hg10 mi
9:53 PM47 °FPassing clouds.15 mph77%30.16 "Hg10 mi
8:53 PM47 °FMostly cloudy.5 mph77%30.18 "Hg10 mi
7:53 PM47 °FLight rain. Overcast.10 mph77%30.17 "Hg10 mi
6:53 PM47 °FLight rain. Overcast.9 mph80%30.20 "Hg10 mi
5:53 PM47 °FLight rain. Overcast.5 mph80%30.22 "Hg10 mi
4:53 PM51 °FLight rain. Mostly cloudy.12 mph54%30.22 "Hg10 mi
3:53 PM51 °FMore clouds than sun.7 mph61%30.21 "Hg10 mi
Weather by CustomWeather, © 2016

See weather overviewHow to use our weather pages